Погода в Аграрном

Россия / Республика Крым     45°00′56″N   34°03′23″E
темп.,
°C
ветер,
м/с
пор.,
м/с
влажн.,
%
обл.,
%
осадки,
мм/ч
давл.,
гПа
погр.,
м
28 июня, вт
вт2800:00+17всв489646 0.0 1013213
03:00+17всв3798100 0.0 1013187
06:00+18св61394100 2.9 1012647
09:00+18всв81492100 4.2 1013764
12:00+20св9128186 0.5 10131021
15:00+23всв91168100 0.6 10131312
18:00+22всв7116999 0.0 1013948
21:00+18всв3581100 0.0 1014102
29 июня, ср
ср2900:00+17в238053 0.0 101460
03:00+16всв238380 0.0 101443
06:00+17в378198 0.0 1014138
09:00+23св465763 0.0 1014419
12:00+27св574441 0.0 10131106
15:00+28всв684296 0.0 10131512
18:00+26всв57525 0.0 1013774
21:00+21в46690 0.0 101389
30 июня, чт
чт3000:00+19в22690 0.0 101422
03:00+19в35660 0.0 101470
06:00+20в38810 0.0 1013138
09:00+26св57600 0.0 1013512
12:00+28св67470 0.0 10131595
15:00+29всв77430 0.0 10131833
18:00+26всв67540 0.0 1013836
21:00+20всв486953 0.0 1014150
1 июля, пт
пт100:00+19всв4107177 0.0 1015227
03:00+20всв5117098 0.0 1014387
06:00+20всв51175100 0.0 1015383
09:00+23всв69586 0.0 1016751
12:00+26всв78450 0.0 10161571
15:00+26всв78380 0.0 10161641
18:00+24всв611430 0.0 10161268
21:00+19в35560 0.0 101776
2 июля, сб
сб200:00+17в22580 0.0 101822
03:00+17всв35600 0.0 101864
06:00+17всв34650 0.0 101862
09:00+23всв57540 0.0 1018717
12:00+27всв77380 0.0 10182090
15:00+26всв76380 0.0 10182000
18:00+24всв57440 0.0 10181346
21:00+18всв35580 0.0 101877